Weather History for Gage, OK

Change the Weather History Date:

Sunday, December 30, 2012

  Actual Average Record
Temperature  
Mean Temperature 35 °F -  
Max Temperature 44 °F 42 °F 76 °F (1956)
Min Temperature 26 °F 18 °F 0 °F (1990)
Degree Days  
Heating Degree Days 30    
Moisture  
Dew Point 18 °F    
Average Humidity 50    
Maximum Humidity 71    
Minimum Humidity 30    
Precipitation  
Precipitation 0.00 in - - ()
Sea Level Pressure  
Sea Level Pressure 30.17 in    
Wind  
Wind Speed 17 mph (South)    
Max Wind Speed 30 mph    
Max Gust Speed 43 mph    
Visibility 10 miles    
Events      
Averages and records for this station are not official NWS values.
T = Trace of Precipitation, MM = Missing Value Source: NWS Daily Summary

Daily Weather History Graph

Daily Weather History Graph

Search for Another Location

Airport:

Trip Planner

Search our weather history database for the weather conditions in past years. The results will help you decide how hot, cold, wet, or windy it might be!

Date:

Astronomy

Dec. 30, 2012 Rise Set
Actual Time 7:50 AM CST 5:33 PM CST
Civil Twilight 7:21 AM CST 6:02 PM CST
Nautical Twilight 6:49 AM CST 6:34 PM CST
Astronomical Twilight 6:18 AM CST 7:05 PM CST
Moon 8:01 PM CST (12/30) 9:04 AM CST (12/30)
Length of Visible Light 10h 40m
Length of Day
9h 43m
Waning Gibbous, 95% of the Moon is Illuminated
Dec 30
Waning Gibbous
Jan 4
Last Quarter
Jan 11
New
Jan 18
First Quarter
Jan 26
Full

Hourly Weather History & Observations

Time (CST) Temp. Windchill Dew Point Humidity Pressure Visibility Wind Dir Wind Speed Gust Speed Precip Events Conditions
12:53 AM 28.9 °F 18.2 °F 19.9 °F 69% 30.27 in 10.0 mi South 13.8 mph - N/A   Clear
1:53 AM 26.1 °F 15.0 °F 18.0 °F 71% 30.28 in 10.0 mi South 12.7 mph - N/A   Clear
2:53 AM 28.9 °F 16.9 °F 17.1 °F 61% 30.26 in 10.0 mi SSW 17.3 mph - N/A   Clear
3:53 AM 28.0 °F 16.1 °F 16.0 °F 61% 30.25 in 10.0 mi South 16.1 mph - N/A   Clear
4:53 AM 28.9 °F 16.9 °F 16.0 °F 58% 30.22 in 10.0 mi South 17.3 mph - N/A   Clear
5:53 AM 28.9 °F 19.2 °F 17.1 °F 61% 30.25 in 10.0 mi South 11.5 mph - N/A   Clear
6:53 AM 28.9 °F 18.6 °F 17.1 °F 61% 30.24 in 10.0 mi South 12.7 mph - N/A   Clear
7:53 AM 30.0 °F 19.1 °F 17.1 °F 59% 30.25 in 10.0 mi South 15.0 mph - N/A   Clear
8:53 AM 34.0 °F 22.7 °F 17.1 °F 50% 30.22 in 10.0 mi South 19.6 mph 28.8 mph N/A   Clear
9:53 AM 37.0 °F 26.7 °F 17.1 °F 44% 30.23 in 10.0 mi South 19.6 mph 26.5 mph N/A   Clear
10:53 AM 42.1 °F 31.5 °F 17.1 °F 37% 30.22 in 10.0 mi SSW 28.8 mph 38.0 mph N/A   Clear
11:53 AM 44.1 °F 34.0 °F 15.1 °F 31% 30.18 in 10.0 mi SSW 29.9 mph 42.6 mph N/A   Clear
12:53 PM 43.0 °F 32.5 °F 14.0 °F 31% 30.14 in 10.0 mi SSW 29.9 mph 36.8 mph N/A   Clear
1:53 PM 43.0 °F 33.5 °F 15.1 °F 32% 30.11 in 10.0 mi SSW 24.2 mph 40.3 mph N/A   Clear
2:53 PM 44.1 °F 36.5 °F 14.0 °F 30% 30.09 in 10.0 mi South 17.3 mph 27.6 mph N/A   Clear
3:53 PM 44.1 °F 36.2 °F 16.0 °F 32% 30.10 in 10.0 mi South 18.4 mph 23.0 mph N/A   Clear
4:53 PM 42.1 °F 33.6 °F 14.0 °F 32% 30.09 in 10.0 mi South 18.4 mph - N/A   Clear
5:53 PM 39.0 °F 30.6 °F 16.0 °F 39% 30.10 in 10.0 mi South 15.0 mph - N/A   Clear
6:53 PM 36.0 °F 27.1 °F 19.9 °F 52% 30.12 in 10.0 mi South 13.8 mph 20.7 mph N/A   Scattered Clouds
7:53 PM 36.0 °F 27.1 °F 21.9 °F 57% 30.12 in 10.0 mi South 13.8 mph - N/A   Clear
8:53 PM 35.1 °F 25.5 °F 23.0 °F 61% 30.09 in 10.0 mi South 15.0 mph - N/A   Clear
9:53 PM 35.1 °F 24.8 °F 21.9 °F 59% 30.09 in 10.0 mi South 17.3 mph - N/A   Clear
10:53 PM 35.1 °F 25.9 °F 21.9 °F 59% 30.07 in 10.0 mi South 13.8 mph - N/A   Partly Cloudy
11:53 PM 35.1 °F 25.5 °F 21.9 °F 59% 30.06 in 10.0 mi South 15.0 mph - N/A   Overcast